Flag for U.S.A. Weather past 2 weeks in Riverside, California, U.S.A.

Now
78 °F

Clear.


Feels Like: 79 °F
Forecast: 74 / 100 °F
Wind: 3 mph from Northeast

Location: Riverside Municipal Airport

Current Time: Sep 16, 2014 at 4:45:52 AM

Latest Report: Sep 16, 2014 at 3:53 AM


Visibility: 10 mi

Pressure: 29.74 "Hg

Humidity: 50%

Dew point: 58 °F

Location of RiversideLocation

Historic Weather in Riverside — Graph

°F

Riverside temperature yesterday

Maximum temperature yesterday: 107 °F (at 1:53 PM)
Minimum temperature yesterday: 75 °F (at 6:53 AM)
Average temperature yesterday: 90 °F

Past Weeks' High & Low Weather Summary

 TemperatureHumidityPressure
High107 °F (Sep 14, 1:53 PM)94% (Sep 2, 5:53 AM)29.90 "Hg (Sep 2, 5:53 AM)
Low62 °F (Sep 5, 6:53 AM)13% (Sep 14, 1:53 PM)29.63 "Hg (Sep 14, 3:53 PM)
Average81 °F49%29.77 "Hg
* Reported Sep 1 3:53 AM — Sep 16 3:53 AM, Riverside, Weather by CustomWeather, © 2014

Note: Actual official high and low records may vary slightly from our data, if they occured in-between our weather recording intervals... More about our weather records

Advertising

Riverside weather history for previous 24 hours

 ConditionsComfort  
Time TempWeatherWind HumidityBarometerVisibility
3:53 AM
Sep 16
78 °FClear.3 mph50%29.74 "Hg10 mi
2:53 AM80 °FClear.No wind44%29.75 "Hg10 mi
1:53 AM80 °FClear.3 mph45%29.75 "Hg10 mi
12:53 AM83 °FClear.No wind40%29.75 "Hg10 mi
11:53 PM
Sep 15
86 °FClear.No wind35%29.75 "Hg10 mi
10:53 PM86 °FClear.No wind36%29.75 "Hg10 mi
9:53 PM89 °FClear.3 mph30%29.75 "Hg10 mi
8:53 PM90 °FClear.6 mph28%29.74 "Hg10 mi
7:53 PM93 °FSunny.7 mph24%29.72 "Hg10 mi
6:53 PM94 °FSunny.9 mph24%29.70 "Hg10 mi
5:53 PM98 °FSunny.10 mph21%29.69 "Hg10 mi
4:53 PM102 °FSunny.13 mph19%29.67 "Hg10 mi
3:53 PM103 °FSunny.16 mph23%29.67 "Hg10 mi
2:53 PM106 °FSunny.16 mph18%29.68 "Hg10 mi
1:53 PM107 °FSunny.7 mph13%29.70 "Hg10 mi
12:53 PM105 °FSunny.5 mph16%29.72 "Hg10 mi
11:53 AM101 °FSunny.7 mph22%29.75 "Hg10 mi
10:53 AM97 °FSunny.5 mph24%29.77 "Hg10 mi
9:53 AM92 °FSunny.3 mph32%29.77 "Hg10 mi
8:53 AM86 °FSunny.No wind39%29.78 "Hg10 mi
7:53 AM80 °FSunny.6 mph47%29.77 "Hg10 mi
6:53 AM75 °FClear.6 mph58%29.76 "Hg10 mi
5:53 AM77 °FClear.3 mph50%29.75 "Hg10 mi
4:53 AM77 °FClear.3 mph52%29.74 "Hg10 mi
Weather by CustomWeather, © 2014

See weather overviewHow to use our weather pages